Home > Weather > Traralgon > Past weeks

Flag for Australia Past Weather in Traralgon, Victoria, Australia — Yesterday and Last 2 Weeks

Now
50 °F

Cool.


Feels Like: 43 °F
Forecast: 47 / 53 °F
Wind: 21 mph from Northwest

Location: Latrobe Valley Airport

Current Time: Jul 26, 2016 at 12:40:49 PM

Latest Report: Jul 26, 2016 at 11:00 AM


Visibility: N/A

Pressure: 29.85 "Hg

Humidity: 59%

Dew Point: 36 °F

Location of TraralgonLocation

Past Weather in Traralgon — Graph

°F

Traralgon Temperature Yesterday

Maximum temperature yesterday: 56 °F (at 3:00 PM)
Minimum temperature yesterday: 36 °F (at 3:00 AM)
Average temperature yesterday: 47 °F

High & Low Weather Summary for the Past Weeks

 TemperatureHumidityPressure
High65 °F (Jul 18, 11:00 AM)98% (Jul 17, 11:00 AM)30.51 "Hg (Jul 17, 11:00 AM)
Low31 °F (Jul 17, 8:00 AM)42% (Jul 11, 2:00 PM)29.26 "Hg (Jul 23, 2:00 AM)
Average49 °F78%29.95 "Hg
* Reported Jul 11 11:00 AM — Jul 26 11:00 AM, Traralgon, Weather by CustomWeather, © 2016

Note: Actual official high and low records may vary slightly from our data, if they occured in-between our weather recording intervals... More about our weather records

Advertising

Traralgon Weather History for the Previous 24 Hours

Scroll right to see more
 ConditionsComfort  
Time TempWeatherWind HumidityBarometerVisibility
11:00 AM
Tue, Jul 26
50 °FCool.21 mph59%29.85 "HgN/A
9:00 AM47 °FCool.20 mph66%29.85 "HgN/A
8:00 AM46 °FCool.22 mph66%29.83 "HgN/A
6:00 AM46 °FOvercast.22 mph63%29.78 "HgN/A
5:00 AM46 °FCool.23 mph62%29.76 "HgN/A
3:00 AM46 °FOvercast.24 mph64%29.72 "HgN/A
2:00 AM45 °FCool.20 mph67%29.73 "HgN/A
12:00 AM46 °FPassing clouds.22 mph70%29.71 "HgN/A
11:00 PM
Mon, Jul 25
47 °FCool.17 mph71%29.69 "HgN/A
9:00 PM47 °FOvercast.12 mph94%29.64 "HgN/A
8:00 PM45 °FCool.24 mph92%29.64 "HgN/A
6:00 PM53 °FOvercast.13 mph54%29.60 "HgN/A
5:00 PM52 °FCool.10 mph57%29.62 "HgN/A
3:00 PM56 °FPartly sunny.15 mph55%29.65 "HgN/A
2:00 PM55 °FCool.18 mph62%29.67 "HgN/A
12:00 PM52 °FOvercast.20 mph73%29.72 "HgN/A
Weather by CustomWeather, © 2016

See weather overviewHow to use our weather pages